ATLAS 5 CENTAUR DEB, 44683

Orbit data source: Space-Track

ATLAS 5 CENTAUR DEB, 44683 is space debris in HEO originally from a launch on Wed, 17 Oct 2018 UTC launched from the Air Force Eastern Test Range (AFETR). Debris objects in space refer to the collection of defunct objects orbiting the Earth. Examples of debris include non-operational satellites, rocket bodies, and fragments generated from explosions, collisions, or faulty payload assembly.

Loading next visibility...
Identifier
44683, 2018-079AV
Orbit
HEO
Country
Flag of USUS
Related business
Flag of USUnited Launch Alliance/Lockheed Martin (US)
Manufacturer
ULA Decatur
Mission
Spacecraft
Bus & Motor
Unknown
Mass
Unknown
Launch date (UTC)
2018-10-17 (8 years ago)
Launch vehicle
Unknown
Launch site
Air Force Eastern Test Range (AFETR)
Object type
Payload
Rocket body
Debris
Shape & HBR
Unknown shape, 1.1 m
Radar Cross Section
Medium (>0.1 m² and <1 m²)

Expand to show TLE details & history
Last TLE update: 2 days ago

TLE from 2 days ago
0 ATLAS 5 CENTAUR DEB
1 44683U 18079AV  26253.76136644 -.00000201  00000-0  00000-0 0  9999
2 44683  13.4324  23.5343 4708058 339.7472   6.4210  1.83233341 52896
Epoch: 2026-09-10T18:16Z
TLE epoch observation values (Epoch: 2026-09-10T18:16:22.060Z)
Latitude
-0.0001°
Longitude
119.67687°
Altitude
8,823.798 km
Speed
6.19 km/s
True Right ascension
01h 34m 15s
True Declination
0° 00' 00"
Sunlit
Object was in daylight at epoch
Visualization orbit readout
Latitude
Unknown
Longitude
Unknown
Altitude
Unknown
Speed
Unknown
Apparent Right ascension
Unknown
Apparent Declination
Unknown
Sunlit
N/A
Visualization observer readout
Local Sidereal Time
17:12:40
Azimuth
Unknown
Elevation
Unknown
Doppler factor
Unknown
Orbital elements
Apogee altitude
35,115.988 km
Perigee altitude
8,551.4 km
Semi-major axis
28,211.831 km
Eccentricity
0.47081
Inclination
13.4324°
RAAN
23.5343°
Arg. of periapsis
339.7472°
True anomaly
19.96653°
Mean anomaly
6.421°
Eccentric anomaly
12.0546°
Mean motion
0.45803 °/min
Orbital period
785.97 mins
BSTAR
0
Loading maneuver chart data...
Computing Atmospheric mass density...

Documentation

Showing up to 5 results
|